Weather History for KOLE - April, 2013

Change the Weather History Date:

Wednesday, April 24, 2013

  Actual Average (KBFD) Record (KBFD)
Temperature  
Mean Temperature 46 °F 47 °F  
Max Temperature 59 °F 59 °F 82 °F (1958)
Min Temperature 32 °F 35 °F 21 °F (2002)
Degree Days  
Heating Degree Days 20 13  
Month to date heating degree days 415  
Since 1 July heating degree days 7022  
Cooling Degree Days 0 0  
Month to date cooling degree days 0  
Year to date cooling degree days 0  
Moisture  
Dew Point 40 °F    
Average Humidity 79    
Maximum Humidity 100    
Minimum Humidity 58    
Precipitation  
Precipitation 0.00 in 0.11 in 1.24 in (1961)
Month to date precipitation 2.83  
Year to date precipitation 11.84  
Sea Level Pressure  
Sea Level Pressure 29.84 in    
Wind  
Wind Speed 11 mph (SSW)    
Max Wind Speed 23 mph    
Max Gust Speed 40 mph    
Visibility 9 miles    
Events Rain , Snow , Thunderstorm    
T = Trace of Precipitation, MM = Missing Value Source: NWS Daily Summary

Daily Weather History Graph

Daily Weather History Graph

Search for Another Location

Airport or City:

Trip Planner

Search our weather history database for the weather conditions in past years. The results will help you decide how hot, cold, wet, or windy it might be!

Date:

Astronomy

Apr. 24, 2013 Rise Set
Actual Time 6:18 AM EDT 8:05 PM EDT
Civil Twilight 5:48 AM EDT 8:35 PM EDT
Nautical Twilight 5:12 AM EDT 9:11 PM EDT
Astronomical Twilight 4:33 AM EDT 9:51 PM EDT
Moon 7:05 PM EDT (4/24) 5:22 AM EDT (4/24)
Length of Visible Light 14h 46m
Length of Day
13h 46m
Waxing Gibbous, 98% of the Moon is Illuminated
Apr 24
Waxing Gibbous
Apr 25
Full
May 2
Last Quarter
May 9
New
May 18
First Quarter

Hourly Weather History & Observations

Time (EDT) Temp. Windchill Dew Point Humidity Pressure Visibility Wind Dir Wind Speed Gust Speed Precip Events Conditions
12:15 AM 48.2 °F - 33.8 °F 58% 29.99 in 10.0 mi South 9.2 mph - N/A   Clear
12:35 AM 46.4 °F 41.1 °F 33.8 °F 62% 29.97 in 10.0 mi South 11.5 mph 17.3 mph N/A   Clear
12:55 AM 46.4 °F 42.4 °F 33.8 °F 62% 29.96 in 10.0 mi South 8.1 mph - N/A   Clear
1:15 AM 46.4 °F 41.5 °F 33.8 °F 62% 29.96 in 10.0 mi South 10.4 mph 17.3 mph N/A   Clear
1:35 AM 46.4 °F 41.5 °F 33.8 °F 62% 29.96 in 10.0 mi South 10.4 mph 16.1 mph N/A   Clear
1:55 AM 46.4 °F 41.1 °F 33.8 °F 62% 29.95 in 10.0 mi South 11.5 mph 17.3 mph N/A   Clear
2:15 AM 44.6 °F 39.7 °F 33.8 °F 66% 29.94 in 10.0 mi South 9.2 mph - N/A   Clear
2:35 AM 44.6 °F 39.7 °F 33.8 °F 66% 29.93 in 10.0 mi South 9.2 mph - N/A   Clear
2:55 AM 44.6 °F 38.8 °F 33.8 °F 66% 29.93 in 10.0 mi South 11.5 mph - N/A   Clear
3:15 AM 44.6 °F 39.2 °F 33.8 °F 66% 29.92 in 10.0 mi South 10.4 mph - N/A   Clear
3:35 AM 44.6 °F 39.7 °F 33.8 °F 66% 29.92 in 10.0 mi South 9.2 mph 16.1 mph N/A   Clear
3:55 AM 44.6 °F 39.7 °F 33.8 °F 66% 29.92 in 10.0 mi South 9.2 mph - N/A   Mostly Cloudy
4:15 AM 44.6 °F 40.2 °F 33.8 °F 66% 29.92 in 10.0 mi South 8.1 mph - N/A   Overcast
4:35 AM 44.6 °F 39.7 °F 33.8 °F 66% 29.91 in 10.0 mi South 9.2 mph - N/A   Overcast
4:55 AM 44.6 °F 38.4 °F 33.8 °F 66% 29.91 in 10.0 mi South 12.7 mph - N/A   Overcast
5:15 AM 44.6 °F 40.2 °F 33.8 °F 66% 29.91 in 10.0 mi South 8.1 mph - N/A   Scattered Clouds
5:35 AM 44.6 °F 39.2 °F 33.8 °F 66% 29.90 in 10.0 mi South 10.4 mph - N/A   Scattered Clouds
5:55 AM 46.4 °F 41.5 °F 35.6 °F 66% 29.89 in 10.0 mi South 10.4 mph - N/A   Scattered Clouds
6:15 AM 46.4 °F 41.5 °F 35.6 °F 66% 29.89 in 10.0 mi South 10.4 mph - N/A   Scattered Clouds
6:55 AM 44.6 °F 40.2 °F 37.4 °F 76% 29.90 in 10.0 mi SSW 8.1 mph - N/A Rain Light Rain
7:15 AM 42.8 °F 37.5 °F 37.4 °F 81% 29.90 in 7.0 mi South 9.2 mph - N/A Rain Light Rain
7:35 AM 42.8 °F 38.6 °F 39.2 °F 87% 29.88 in 10.0 mi South 6.9 mph - N/A Rain Light Rain
7:55 AM 44.6 °F 40.2 °F 41.0 °F 87% 29.88 in 10.0 mi South 8.1 mph - N/A Rain Light Rain
8:15 AM 44.6 °F 40.2 °F 41.0 °F 87% 29.88 in 10.0 mi South 8.1 mph - N/A   Overcast
8:35 AM 44.6 °F 39.7 °F 41.0 °F 87% 29.88 in 10.0 mi SSW 9.2 mph - N/A   Overcast
8:55 AM 46.4 °F 41.5 °F 41.0 °F 81% 29.88 in 10.0 mi South 10.4 mph - N/A   Overcast
9:15 AM 46.4 °F 42.9 °F 41.0 °F 81% 29.87 in 10.0 mi South 6.9 mph - N/A   Overcast
9:35 AM 46.4 °F 42.4 °F 41.0 °F 81% 29.85 in 10.0 mi South 8.1 mph - N/A   Overcast
9:55 AM 48.2 °F - 42.8 °F 82% 29.83 in 10.0 mi South 8.1 mph - N/A   Overcast
10:15 AM 50.0 °F - 42.8 °F 76% 29.82 in 10.0 mi South 9.2 mph - N/A   Overcast
10:35 AM 51.8 °F - 44.6 °F 76% 29.81 in 10.0 mi SSW 13.8 mph 18.4 mph N/A   Mostly Cloudy
10:55 AM 53.6 °F - 46.4 °F 77% 29.80 in 10.0 mi SSW 13.8 mph 19.6 mph N/A   Scattered Clouds
11:15 AM 55.4 °F - 46.4 °F 72% 29.81 in 10.0 mi SSW 13.8 mph 23.0 mph N/A   Mostly Cloudy
11:35 AM 59.0 °F - 48.2 °F 67% 29.79 in 10.0 mi SSW 13.8 mph - N/A   Mostly Cloudy
11:55 AM 57.2 °F - 46.4 °F 67% 29.78 in 10.0 mi SSW 11.5 mph 18.4 mph N/A   Overcast
12:15 PM 59.0 °F - 46.4 °F 63% 29.78 in 10.0 mi SSW 12.7 mph 20.7 mph N/A   Overcast
12:35 PM 57.2 °F - 46.4 °F 67% 29.78 in 10.0 mi SSW 11.5 mph 17.3 mph N/A   Overcast
12:55 PM 55.4 °F - 46.4 °F 72% 29.78 in 10.0 mi SSW 18.4 mph 23.0 mph N/A   Overcast
1:15 PM 55.4 °F - 46.4 °F 72% 29.79 in 10.0 mi SW 9.2 mph 20.7 mph N/A   Overcast
1:35 PM 55.4 °F - 46.4 °F 72% 29.77 in 10.0 mi SSW 16.1 mph 20.7 mph N/A   Overcast
1:55 PM 55.4 °F - 48.2 °F 77% 29.75 in 10.0 mi SSW 11.5 mph 17.3 mph N/A Rain Light Rain
2:15 PM 55.4 °F - 50.0 °F 82% 29.73 in 10.0 mi SSW 12.7 mph 18.4 mph N/A   Light Drizzle
2:35 PM 55.4 °F - 50.0 °F 82% 29.74 in 10.0 mi SSW 13.8 mph 20.7 mph N/A Rain , Thunderstorm Rain
2:55 PM 53.6 °F - 50.0 °F 88% 29.74 in 10.0 mi SSW 15.0 mph 27.6 mph N/A Rain Light Rain
3:15 PM 53.6 °F - 51.8 °F 94% 29.73 in 7.0 mi SSW 16.1 mph 26.5 mph N/A Rain Light Rain
3:35 PM 53.6 °F - 51.8 °F 94% 29.73 in 7.0 mi WSW 15.0 mph 21.9 mph N/A Rain Light Rain
3:55 PM 53.6 °F - 51.8 °F 94% 29.69 in 7.0 mi SW 19.6 mph 40.3 mph N/A Rain Light Rain
4:15 PM 53.6 °F - 51.8 °F 94% 29.70 in 10.0 mi SW 13.8 mph 29.9 mph N/A   Drizzle
4:35 PM 53.6 °F - 51.8 °F 94% 29.68 in 10.0 mi SSW 23.0 mph 29.9 mph N/A   Light Drizzle
4:55 PM 55.4 °F - 50.0 °F 82% 29.66 in 10.0 mi SW 17.3 mph 27.6 mph N/A   Overcast
5:15 PM 55.4 °F - 50.0 °F 82% 29.67 in 10.0 mi SW 13.8 mph 28.8 mph N/A   Overcast
5:35 PM 55.4 °F - 50.0 °F 82% 29.67 in 10.0 mi SW 17.3 mph 26.5 mph N/A   Overcast
5:55 PM 55.4 °F - 50.0 °F 82% 29.67 in 10.0 mi SW 8.1 mph 25.3 mph N/A   Overcast
6:15 PM 55.4 °F - 50.0 °F 82% 29.68 in 10.0 mi WSW 11.5 mph 23.0 mph N/A Rain Rain
6:35 PM 42.8 °F 35.4 °F 41.0 °F 93% 29.72 in 10.0 mi WNW 15.0 mph 29.9 mph N/A Rain Light Rain
6:55 PM 39.2 °F 31.6 °F 37.4 °F 93% 29.75 in 5.0 mi WNW 12.7 mph 19.6 mph N/A Rain Rain
7:15 PM 37.4 °F 30.3 °F 37.4 °F 100% 29.78 in 5.0 mi West 10.4 mph 21.9 mph N/A Rain Light Rain
7:35 PM 35.6 °F 28.6 °F 33.8 °F 93% 29.79 in 5.0 mi West 9.2 mph 20.7 mph N/A Rain Light Rain
7:55 PM 35.6 °F 27.5 °F 33.8 °F 93% 29.81 in 5.0 mi West 11.5 mph 20.7 mph N/A Rain Light Rain
8:15 PM 33.8 °F 26.4 °F 32.0 °F 93% 29.83 in 7.0 mi West 9.2 mph - N/A Rain Light Rain
8:35 PM 33.8 °F 25.8 °F 32.0 °F 93% 29.86 in 5.0 mi West 10.4 mph 21.9 mph N/A   Light Drizzle
8:55 PM 33.8 °F 26.4 °F 32.0 °F 93% 29.88 in 7.0 mi West 9.2 mph 24.2 mph N/A Rain Light Rain
9:15 PM 32.0 °F 25.6 °F 32.0 °F 100% 29.90 in 5.0 mi West 6.9 mph 20.7 mph N/A Snow Light Snow
9:35 PM 32.0 °F 23.6 °F 32.0 °F 100% 29.92 in 5.0 mi West 10.4 mph 25.3 mph N/A   Overcast
9:55 PM 32.0 °F 23.6 °F 32.0 °F 100% 29.94 in 4.0 mi West 10.4 mph 16.1 mph N/A Snow Light Snow
11:15 PM 32.0 °F - 30.2 °F 93% 29.99 in 7.0 mi Calm Calm - N/A   Overcast
11:35 PM 32.0 °F - 30.2 °F 93% 30.00 in 3.0 mi Calm Calm - N/A Snow Light Snow
11:55 PM 32.0 °F - 30.2 °F 93% 30.01 in 5.0 mi Calm Calm - N/A   Overcast